Sunday, August 19, 2018, 1:54 PM EDT
Back to Local

KMSS, Massena International -richards Fld

Location: Massena, NY, United States Lat: 44.933
Local Time: 1:54 PM EDT (17:54 GMT) Lon: -74.85
Time Zone: US/Eastern Elev: 213 ft

Show me the last for .
Show Coded

Time T Td Feel RH Dir Speed Gust Alt SLP Vis Weather Sky Remarks
2018-08-19 12:53 80 64 82 58 Variable 7 - 30.06 30.06 10 FEW042 SCT060 None
2018-08-19 11:53 78 63 80 59 Variable 7 - 30.07 30.07 10 FEW037 None
2018-08-19 10:53 76 64 79 66 60° 9 - 30.08 30.08 10 CLR None
2018-08-19 09:53 73 65 77 75 Variable 6 - 30.08 30.07 10 CLR None
2018-08-19 08:53 67 63 - 87 70° 5 - 30.07 30.07 10 CLR None
2018-08-19 07:53 62 61 - 96 - Calm - 30.06 30.06 10 CLR 6-hr Min Temp (8am): 52.0°F
6-hr Max Temp (8am): 62.1°F
2018-08-19 07:02 54 54 - 100 - Calm - 30.05 - 10 SCT001 None
2018-08-19 06:55 53 53 - 100 - Calm - 30.05 - 1 BR SCT001 None
2018-08-19 06:53 53 53 - 100 - Calm - 30.05 30.05 0 BR VV001 None
2018-08-19 06:50 54 54 - 100 - Calm - 30.05 - 0 FG VV001 None
2018-08-19 06:43 53 53 - 100 - Calm - 30.04 - 1 BR BKN001 None
2018-08-19 06:22 53 53 - 100 - Calm - 30.04 - 10 BKN001 None
2018-08-19 05:53 54 54 - 100 - Calm - 30.03 30.02 4 BR FEW002 None
2018-08-19 05:50 54 54 - 100 - Calm - 30.03 - 2 BR FEW002 None
2018-08-19 05:46 53 53 - 100 - Calm - 30.02 - 1 BR SCT002 None
2018-08-19 05:29 54 54 - 100 190° 3 - 30.02 - 0 BR VV001 None
2018-08-19 05:27 54 54 - 100 190° 3 - 30.02 - 1 BR SCT002 None
2018-08-19 04:53 53 53 - 100 - Calm - 30.01 30.01 10 FEW001 None
2018-08-19 04:46 53 53 - 100 - Calm - 30.01 - 5 BR SCT001 None
2018-08-19 04:42 53 53 - 100 - Calm - 30.01 - 2 BR BKN001 None
2018-08-19 04:29 54 54 - 100 - Calm - 30.01 - 1 BR BKN001 Variable visibility
2018-08-19 04:23 54 54 - 100 - Calm - 30.01 - 2 BR BKN001 Variable visibility
2018-08-19 04:08 54 54 - 100 - Calm - 30.00 - 1 BR VV001 None
2018-08-19 04:05 54 54 - 100 - Calm - 30.00 - 1 BR SCT002 None
2018-08-19 04:00 55 55 - 100 - Calm - 30.00 - 10 SCT002 None
2018-08-19 03:53 55 55 - 100 - Calm - 30.00 30.00 10 BKN002 None
2018-08-19 03:48 55 55 - 100 - Calm - 30.00 - 10 BKN002 None
2018-08-19 03:03 55 55 - 100 - Calm - 29.99 - 4 BR FEW002 None
2018-08-19 03:00 55 55 - 100 - Calm - 29.99 - 1 BR FEW002 Variable visibility
2018-08-19 02:57 55 55 - 100 - Calm - 29.99 - 1 BR VV002 Variable visibility
2018-08-19 02:53 56 56 - 100 - Calm - 29.99 29.99 0 BR CLR None
2018-08-19 02:47 55 55 - 100 - Calm - 29.99 - 1 BR CLR None
2018-08-19 01:53 57 57 - 100 - Calm - 29.99 29.99 10 CLR 6-hr Min Temp (2am): 57.0°F
6-hr Max Temp (2am): 68.0°F
2018-08-19 01:13 58 58 - 100 - Calm - 29.99 - 10 FEW002 None
2018-08-19 01:04 57 57 - 100 - Calm - 29.99 - 2 BR FEW002 None
2018-08-19 01:02 57 57 - 100 - Calm - 29.99 - 1 BR FEW002 None
2018-08-19 00:53 57 57 - 100 - Calm - 29.99 29.99 0 BR VV002 24-hr Min Temp (1am): 57.0°F
24-hr Max Temp (1am): 75.9°F
2018-08-19 00:37 59 59 - 100 - Calm - 29.99 - 0 BR CLR None
2018-08-19 00:31 58 58 - 100 - Calm - 29.99 - 1 BR CLR None
2018-08-18 23:53 59 59 - 100 - Calm - 29.98 29.98 10 CLR None
2018-08-18 23:23 60 60 - 100 - Calm - 29.98 - 3 BR CLR None
2018-08-18 23:14 59 59 - 100 - Calm - 29.98 - 1 BR CLR None
2018-08-18 22:53 60 60 - 100 - Calm - 29.98 29.98 10 CLR None
2018-08-18 21:53 62 62 - 100 - Calm - 29.98 29.97 10 CLR None
2018-08-18 20:53 64 63 - 96 - Calm - 29.97 29.96 10 CLR None
2018-08-18 19:53 68 65 - 89 - Calm - 29.95 29.95 10 CLR 6-hr Min Temp (8pm): 68.0°F
6-hr Max Temp (8pm): 75.9°F
2018-08-18 18:53 74 63 77 68 120° 3 - 29.95 29.94 10 FEW050 None
2018-08-18 17:53 75 62 78 64 100° 3 - 29.94 29.93 10 CLR None
2018-08-18 16:53 76 62 78 62 90° 5 - 29.93 29.93 10 CLR None
2018-08-18 15:53 76 61 78 59 - - - 29.93 29.93 10 SCT038 None
2018-08-18 14:53 75 61 78 61 30° 10 - 29.93 29.93 10 SCT037 None

Support USWX by starting your Amazon purchase here.